Weather in Irkliev

Ukraine / Cherkassi District     49°31′01″N   32°20′10″E
temp.,
°C
wind,
m/s
gust,
m/s
humid.,
%
clouds,
%
prec.,
mm/h
press.,
hPa
HPBL,
m
18 april, sun
sun1800:00+7w3582100 0.1 1019248
03:00+7w3581100 0.1 1019221
06:00+7sw3484100 0.1 1018202
09:00+7sw457997 0.1 1018305
12:00+9sw456717 0.0 1018329
15:00+11wsw346257 0.0 1017389
18:00+11nnw566985 0.0 1017219
21:00+9ne3482100 0.0 101892
19 april, mon
mon1900:00+8ne3488100 0.0 1018165
03:00+6ene4489100 0.1 1018201
06:00+6ne3385100 0.1 1018219
09:00+7ne3475100 0.1 1018308
12:00+9se1166100 0.0 1017298
15:00+9s1169100 0.0 1017429
18:00+10e236690 0.0 1015344
21:00+10ne697085 0.0 1015171
20 april, tue
tue2000:00+9ne6978100 0.0 1013212
03:00+9ne71178100 0.0 1011272
06:00+8ne71279100 0.0 1009322
09:00+9ne91371100 0.0 1008482
12:00+10nne101367100 0.0 1005576
15:00+9n101487100 2.6 1003750
18:00+8nnw111589100 2.4 1002829
21:00+9nw111679100 3.9 1003787
21 april, wed
wed2100:00+7nw111583100 0.4 1005664
03:00+6wnw91381100 0.4 1007694
06:00+6wnw81173100 0.0 10091040
09:00+7w71068100 0.0 10121246
12:00+8w7861100 0.0 10141457
15:00+9w5862100 0.0 1015628
18:00+10wnw466267 0.0 1016276
21:00+9sse456968 0.0 101754
22 april, thu
thu2200:00+10s5773100 0.0 1018109
03:00+8ssw4984100 0.0 1018213
06:00+8ssw469092 0.0 1019181
09:00+9ssw348313 0.1 1021145
12:00+12s347465 0.5 1021214
15:00+13se336315 0.8 1021341
18:00+13ese567291 0.0 1021153
21:00+12ese567070 0.0 102152